STARLINK-32791, 62530

Orbit data source: Space-Track

STARLINK-32791, 62530 is a payload satellite owned by SpaceX/Seattle (US) in LEO that was launched on Wed, 08 Jan 2025 UTC via an FALCON 9 launch vehicle from the Air Force Eastern Test Range (AFETR). Payload-class satellites include a variety of spacecraft equipped with specific instruments for various scientific and technological missions. These include communications satellites like Starlink; space stations such as the ISS; scientific satellites like the Hubble; Earth observation satellites from companies like Planet Labs, Umbra, and HawkEye 360; GPS; miniature CubeSats for education and research; and military/defense satellites.

Loading next visibility...
Identifier
62530, 2025-004V
Orbit
LEO
Country
Flag of USUS
Related business
Manufacturer
SpaceX/Seattle
Mission
Operational Commercial Communications
Bus & Motor
STARLINK V2M, Unknown motor
Mass
730 kg wet, ~700 kg dry
Launch date (UTC)
2025-01-08 (10 months ago)
Launch vehicle
FALCON 9
Launch site
Air Force Eastern Test Range (AFETR)
Object type
Payload
Rocket body
Debris
Shape & HBR
Box + 2 Pan, 17.7 m
Radar Cross Section
33.884 m², Large (>1 m²)

Expand to show TLE details & history
Last TLE update: 15 hours ago

TLE from 15 hours ago
0 STARLINK-32791
1 62530U 25004V   25308.43637328  .00030862  00000-0  11260-2 0  9992
2 62530  43.0008 207.1595 0003604 267.5812  92.4627 15.27585870 47308
Epoch: 2025-11-04T10:28Z
TLE epoch observation values (Epoch: 2025-11-04T10:28:22.651Z)
Latitude
-0.00002°
Longitude
6.14168°
Altitude
482.914 km
Speed
7.626 km/s
True Right ascension
13h 48m 38s
True Declination
0° 00' 00"
Sunlit
Object was in daylight at epoch
Visualization orbit readout
Latitude
Unknown
Longitude
Unknown
Altitude
Unknown
Speed
Unknown
Apparent Right ascension
Unknown
Apparent Declination
Unknown
Sunlit
N/A
Visualization observer readout
Local Sidereal Time
20:58:52
Azimuth
Unknown
Elevation
Unknown
Doppler factor
Unknown
Orbital elements
Apogee altitude
487.45 km
Perigee altitude
482.503 km
Semi-major axis
6,863.114 km
Eccentricity
0.00036
Inclination
43.0008°
RAAN
207.1595°
Arg. of periapsis
267.5812°
True anomaly
92.50396°
Mean anomaly
92.4627°
Eccentric anomaly
92.48333°
Mean motion
3.81734 °/min
Orbital period
94.31 mins
BSTAR
0.001126
Loading maneuver chart data...
Computing Atmospheric mass density...
Loading historical data...
Loading historical data...
Loading historical data...
Loading historical data...
Loading historical data...
Loading historical data...
Loading historical data...

Documentation

Showing up to 5 results
|